Vertical_Velocity
0 -10 9 -4 -7 5 -4 -3 3 7 0 2 -3 -3 2 -7 1 3 4 2 3 -2 -2 3 -4 -0 -3 -0 -3 0 1 1 1 -0 -0 -1 -1 -2 -2 1 -3 -1 -3 -2
-0 -5 10 -4 -5 -5 -0 -2 7 3 7 -19 7 2 3 4 -12 10 -1 -5 -1 -2 0 6 0 -3 -9 -3 -0 -0 0 0 -2 -2 -2 -1 0 -1 -1 -3 -3 -4 -0 -3
-16 30 4 4 1 -6 2 -7 2 -3 -1 -12 -1 -5 -6 10 6 -17 13 1 1 -2 -5 3 -0 2 -3 0 0 -1 -1 -1 -2 -1 -1 0 -3 -3 -2 -2 -4 -3 -1 -1
-25 19 -0 -5 5 0 -10 5 0 2 0 -11 7 -63 -9 1 -1 -3 4 7 1 4 -1 8 5 1 -5 -5 -3 -2 -0 0 -1 -0 1 -2 -4 1 -4 -2 -1 1 -1 -1
28 -3 3 -7 10 2 3 -5 -2 -4 3 -11 38 -41 67 0 2 -6 12 2 4 -0 3 3 6 3 -2 -1 -5 -2 -3 -0 -1 4 2 1 -3 -2 -1 -2 -3 -2 -1 -3
10 -10 -5 11 6 1 15 -9 2 3 7 -39 66 12 -50 15 -4 -15 4 10 10 1 -0 -1 3 -3 -5 5 -1 2 0 -0 0 -0 3 -1 -1 -2 2 -2 -2 -1 -1 -4
4 8 -4 4 -2 0 7 1 -7 -16 0 -54 42 -10 12 17 -8 16 -15 -4 8 -1 -5 -5 1 1 -3 3 -1 -0 -1 0 -1 -1 -1 -2 1 1 2 -3 -3 -5 -3 -7
1 -4 3 -0 16 2 5 -5 -7 8 -1 7 17 -42 13 -5 8 -1 12 1 -3 9 3 6 6 -1 -7 -2 1 2 -2 -3 -0 -1 -1 1 -1 2 -1 -3 -2 0 -4 -7
-4 4 -17 7 4 9 24 -25 21 -1 -6 -1 8 -17 -42 14 -2 -2 8 8 4 2 -1 -2 -1 -3 -8 -1 4 2 2 -1 -2 -1 -2 -2 -2 3 -1 -2 -2 -0 -5 -3
-18 -11 7 -9 9 4 1 11 10 13 6 7 -24 -3 -21 23 -4 -18 14 7 3 1 -3 5 7 0 -5 4 -3 1 2 -1 -3 -2 -2 0 2 -2 2 -3 -2 -2 -1 -4
-7 -6 27 -19 3 12 8 -11 6 4 1 -7 -11 -52 39 3 -2 6 -12 5 -0 -4 -3 2 9 5 -1 -2 -0 -0 -3 2 -6 1 -1 -0 -2 -2 0 -2 -1 -4 -1 -3
-5 -6 -3 -1 10 4 -13 -6 13 9 -6 -5 -7 -82 32 5 3 4 7 5 1 1 2 1 5 3 7 -1 -5 -1 3 -3 1 -2 -1 -1 -3 4 3 -2 -1 -3 -1 -2
-5 -17 -11 0 8 18 -3 -7 7 11 5 -42 27 -51 5 12 7 2 7 -3 0 1 -2 -1 11 2 -0 4 -3 -8 -0 -1 3 0 -0 1 -2 5 1 -0 -1 -1 -2 -2
3 3 -4 -18 8 27 8 -1 -1 6 1 1 -7 -8 -15 26 0 4 -5 -9 -2 1 3 0 9 1 5 5 -8 -2 1 0 1 1 -1 -2 2 1 0 0 -1 -3 -1 -2
9 -2 5 6 -14 17 11 7 6 -3 1 4 -5 -3 -46 39 4 -2 5 3 0 -7 12 4 7 2 0 2 -5 4 -2 3 -0 0 -2 1 -0 0 1 1 -2 -1 -1 -1
4 -34 20 -24 4 4 -1 -12 -13 20 10 -3 -5 -37 12 18 6 8 2 -7 3 0 3 7 10 4 2 -1 2 -0 1 1 -0 -0 1 -1 0 1 1 -0 -1 -1 -2 -0
-0 -3 -4 -21 9 12 -12 -28 16 -5 6 2 -9 -5 -10 4 -3 0 -7 3 2 -2 4 5 11 -1 20 -3 6 0 -3 2 -1 1 -1 -2 0 1 0 -0 -1 -1 -1 -0
4 1 5 -19 9 -13 -21 5 -6 1 -8 -6 6 -6 -26 8 -4 -11 0 2 -4 7 -7 2 -0 3 12 17 3 -2 1 -1 -0 1 -0 -3 -0 1 -0 -1 -1 -0 0 -0
-4 5 -4 -5 -2 -9 -24 4 13 8 -18 -12 15 -11 -2 2 4 -13 2 -1 10 16 5 8 7 11 7 -4 -0 1 -3 -1 -0 -2 -2 -1 -0 0 -0 -0 -1 0 -0 0
0 -12 9 2 2 -13 8 6 -28 13 -28 46 7 -0 -11 -10 -20 20 -0 -14 4 11 9 10 5 1 -3 -1 0 -2 -1 -2 -0 -2 -2 -1 0 1 -0 -1 -0 -0 -1 0
3 3 -4 0 -5 -8 20 -3 -4 26 14 -8 1 -1 2 -6 24 -1 3 3 4 7 5 6 0 2 -1 0 -4 0 -1 1 -1 -1 -1 1 1 -0 -1 -0 -0 -0 -2 -0
-10 5 1 3 -6 -13 -11 0 2 -1 -3 -6 -2 -5 -3 -4 13 8 -1 0 4 -0 -1 -2 -0 2 2 -2 1 -1 1 -1 0 -1 0 -0 1 -1 -0 -1 -1 -1 -0 0
-7 -6 3 3 33 72 34 13 -1 -5 1 -4 2 1 0 8 2 -1 4 -4 -3 -3 -2 1 1 2 -1 -1 2 -2 -1 -0 -2 -1 -1 -0 0 -1 2 -3 -1 -0 -0 1
5 -7 2 -7 1 -3 -2 -3 -0 1 -0 -1 -0 1 13 5 4 6 4 4 2 0 1 2 2 -1 -2 3 1 -2 -1 -3 -1 0 1 -0 0 -1 1 -1 0 -0 1 1
27 26 4 -2 -2 -5 -0 5 -3 -3 -4 -2 -1 3 13 4 0 -1 -1 0 -3 -0 1 1 -0 -1 0 -1 -4 -1 -1 -1 0 1 -0 -0 1 -1 -1 0 -0 1 2 0
4 -0 -5 3 -1 -4 7 -7 -2 -3 -4 -4 1 6 7 3 12 3 8 1 1 1 -1 -2 -2 3 1 -0 -1 1 -2 -1 2 -0 -0 0 1 -2 -2 -1 0 2 1 1
Height
5754 5752 5756 5759 5755 5754 5753 5753 5752 5754 5756 5747 5750 5748 5750 5744 5747 5747 5747 5747 5747 5746 5743 5743 5742 5741 5738 5737 5734 5732 5729 5726 5723 5720 5717 5715 5712 5708 5704 5700 5696 5692 5689 5685
5744 5743 5749 5748 5748 5747 5746 5745 5744 5744 5745 5739 5740 5740 5740 5740 5736 5739 5737 5735 5735 5734 5734 5734 5732 5730 5729 5726 5725 5723 5720 5717 5714 5710 5707 5704 5701 5697 5693 5689 5685 5682 5678 5673
5735 5739 5737 5739 5740 5738 5738 5737 5737 5735 5734 5733 5731 5731 5731 5731 5732 5725 5726 5726 5725 5726 5725 5724 5722 5720 5719 5717 5714 5712 5709 5706 5703 5699 5697 5694 5690 5686 5682 5679 5675 5670 5665 5661
5723 5728 5727 5725 5728 5727 5729 5727 5725 5724 5723 5725 5725 5717 5723 5721 5721 5718 5716 5718 5715 5715 5714 5714 5712 5710 5707 5706 5704 5702 5699 5695 5692 5689 5685 5681 5679 5675 5671 5667 5663 5659 5654 5650
5716 5714 5715 5713 5718 5714 5718 5715 5714 5712 5712 5713 5714 5709 5714 5712 5713 5709 5705 5706 5705 5703 5704 5703 5700 5698 5695 5693 5691 5688 5686 5683 5681 5677 5673 5670 5666 5663 5659 5655 5651 5647 5643 5639
5703 5700 5701 5705 5705 5703 5705 5700 5702 5700 5699 5698 5705 5701 5701 5704 5700 5694 5693 5695 5695 5693 5691 5689 5688 5685 5683 5682 5679 5676 5673 5671 5668 5665 5662 5659 5655 5651 5648 5644 5641 5637 5633 5629
5688 5688 5689 5691 5692 5691 5693 5690 5689 5687 5685 5687 5694 5689 5692 5690 5686 5684 5679 5677 5680 5679 5677 5677 5676 5673 5670 5669 5666 5664 5662 5659 5656 5654 5652 5648 5644 5641 5637 5635 5632 5627 5623 5619
5675 5678 5678 5681 5680 5681 5681 5678 5678 5674 5677 5679 5680 5673 5679 5676 5673 5671 5672 5673 5670 5666 5664 5662 5660 5658 5658 5657 5654 5651 5649 5647 5646 5644 5641 5638 5635 5631 5627 5625 5622 5618 5614 5609
5661 5664 5662 5665 5668 5670 5672 5663 5668 5662 5662 5660 5666 5665 5668 5663 5658 5660 5659 5654 5653 5653 5652 5648 5647 5644 5643 5643 5642 5639 5637 5636 5635 5634 5631 5628 5625 5622 5618 5615 5612 5608 5603 5600
5644 5649 5652 5650 5655 5654 5653 5656 5653 5649 5646 5643 5649 5653 5656 5654 5651 5645 5642 5640 5641 5640 5638 5635 5633 5631 5630 5630 5630 5629 5627 5625 5625 5623 5620 5618 5615 5612 5608 5606 5603 5598 5595 5591
5629 5632 5642 5636 5639 5639 5638 5638 5638 5636 5635 5630 5633 5640 5652 5639 5634 5633 5630 5630 5630 5628 5627 5625 5624 5620 5619 5619 5619 5619 5618 5617 5613 5613 5611 5608 5605 5602 5599 5596 5593 5590 5586 5581
5612 5615 5621 5624 5626 5623 5619 5624 5623 5618 5620 5618 5617 5620 5636 5623 5620 5622 5622 5622 5619 5617 5616 5614 5614 5612 5611 5608 5610 5608 5608 5607 5604 5603 5601 5597 5595 5590 5589 5586 5584 5582 5578 5574
5596 5598 5602 5609 5613 5610 5605 5607 5608 5606 5604 5600 5601 5608 5616 5611 5608 5609 5608 5608 5607 5604 5604 5604 5605 5600 5603 5599 5600 5599 5598 5597 5595 5593 5590 5587 5583 5581 5580 5578 5576 5573 5570 5566
5580 5582 5585 5590 5599 5595 5591 5591 5589 5590 5588 5589 5589 5590 5602 5602 5596 5593 5594 5593 5593 5593 5593 5591 5593 5591 5592 5592 5590 5589 5588 5587 5586 5583 5579 5577 5574 5572 5572 5570 5568 5566 5562 5558
5567 5568 5571 5572 5579 5577 5577 5579 5579 5576 5576 5572 5577 5574 5587 5588 5581 5579 5585 5580 5581 5582 5583 5581 5581 5581 5581 5581 5580 5580 5579 5577 5576 5573 5570 5567 5566 5565 5564 5562 5560 5557 5554 5551
5552 5554 5557 5554 5563 5560 5556 5560 5563 5565 5561 5558 5558 5558 5572 5574 5568 5566 5571 5568 5569 5570 5570 5569 5570 5570 5569 5571 5570 5570 5569 5568 5566 5564 5561 5559 5558 5557 5556 5554 5552 5549 5546 5544
5542 5541 5542 5541 5549 5544 5540 5549 5550 5548 5547 5547 5543 5549 5556 5554 5552 5552 5555 5555 5556 5557 5557 5556 5558 5560 5560 5559 5561 5561 5561 5558 5557 5555 5553 5552 5550 5549 5548 5546 5544 5541 5539 5536
5530 5530 5531 5530 5534 5524 5538 5538 5537 5535 5534 5536 5535 5535 5536 5539 5538 5538 5540 5541 5542 5544 5544 5546 5547 5549 5549 5548 5552 5552 5549 5548 5547 5545 5545 5544 5543 5541 5540 5538 5536 5533 5530 5527
5519 5521 5521 5519 5520 5521 5524 5531 5526 5523 5521 5525 5525 5522 5523 5524 5523 5526 5528 5527 5528 5530 5530 5532 5535 5536 5538 5541 5541 5540 5540 5539 5538 5538 5537 5536 5535 5533 5531 5530 5527 5524 5521 5518
5511 5512 5511 5512 5510 5509 5517 5515 5512 5508 5507 5511 5507 5510 5510 5511 5511 5515 5513 5515 5516 5518 5519 5522 5525 5528 5530 5531 5531 5531 5531 5531 5531 5530 5529 5528 5527 5525 5523 5521 5518 5515 5512 5510
5504 5503 5502 5504 5501 5500 5502 5505 5504 5500 5503 5500 5501 5501 5502 5504 5503 5499 5501 5503 5505 5508 5511 5513 5516 5520 5521 5523 5523 5523 5523 5523 5523 5522 5521 5520 5519 5517 5515 5513 5510 5507 5504 5502
5497 5497 5496 5497 5496 5496 5494 5496 5496 5494 5493 5493 5492 5491 5491 5493 5493 5488 5494 5496 5498 5500 5503 5506 5509 5512 5513 5515 5514 5515 5515 5515 5515 5514 5513 5512 5510 5508 5506 5504 5501 5498 5496 5494
5485 5488 5490 5491 5491 5487 5487 5486 5486 5486 5486 5485 5484 5483 5482 5481 5484 5486 5487 5488 5491 5494 5497 5500 5503 5504 5505 5505 5506 5507 5507 5508 5507 5506 5505 5503 5502 5500 5498 5495 5493 5490 5488 5486
5478 5481 5482 5483 5484 5482 5481 5480 5481 5480 5478 5477 5476 5476 5477 5478 5479 5480 5482 5484 5486 5489 5491 5494 5496 5498 5498 5498 5499 5501 5501 5499 5499 5498 5496 5495 5493 5491 5489 5486 5484 5481 5480 5478
5467 5475 5476 5478 5478 5477 5476 5475 5474 5473 5472 5471 5471 5471 5472 5474 5475 5476 5478 5479 5481 5483 5485 5487 5489 5490 5492 5493 5494 5494 5493 5492 5491 5489 5488 5486 5485 5482 5480 5478 5475 5473 5472 5470
5465 5468 5471 5471 5471 5471 5471 5470 5470 5469 5468 5467 5467 5468 5467 5469 5472 5472 5473 5474 5475 5477 5479 5481 5483 5485 5485 5487 5486 5486 5485 5484 5482 5481 5479 5478 5476 5474 5472 5469 5467 5465 5463 5462